Flag for French Guiana Weather past 2 weeks in Cayenne, French Guiana

88 °F

Passing clouds.

Feels Like: 96 °F
Forecast: 79 / 85 °F
Wind: 9 mph from Northeast

Location: Cayenne / Rochambeau

Current Time: Nov 28, 2015 at 3:48:50 PM

Latest Report: Nov 28, 2015 at 3:30 PM

Visibility: N/A

Pressure: 29.80 "Hg

Humidity: 62%

Dew point: 73 °F

Location of CayenneLocation

Historic Weather in Cayenne — Graph


Cayenne temperature yesterday

Maximum temperature yesterday: 90 °F (at 1:30 PM)
Minimum temperature yesterday: 77 °F (at 3:00 AM)
Average temperature yesterday: 83 °F

Past Weeks' High & Low Weather Summary

High91 °F (Nov 19, 1:00 PM)100% (Nov 14, 3:30 AM)29.95 "Hg (Nov 14, 3:30 AM)
Low72 °F (Nov 19, 6:00 AM)55% (Nov 22, 11:00 AM)29.71 "Hg (Nov 18, 3:00 PM)
Average81 °F83%29.83 "Hg
* Reported Nov 13 2:00 PM — Nov 28 2:30 PM, Cayenne, Weather by CustomWeather, © 2015

Note: Actual official high and low records may vary slightly from our data, if they occured in-between our weather recording intervals... More about our weather records


Cayenne weather history for previous 24 hours

Time TempWeatherWind HumidityBarometerVisibility
2:30 PM
Sat, Nov 28
90 °FBroken clouds.10 mph59%29.80 "HgN/A
2:00 PM90 °FPassing clouds.9 mph59%29.83 "HgN/A
1:30 PM90 °FScattered clouds.10 mph59%29.83 "HgN/A
1:00 PM90 °FMostly cloudy.9 mph59%29.86 "HgN/A
12:30 PM90 °FPartly sunny.7 mph63%29.86 "HgN/A
12:00 PM90 °FPartly sunny.8 mph59%29.86 "HgN/A
11:30 AM88 °FScattered clouds.9 mph70%29.89 "HgN/A
11:00 AM88 °FBroken clouds.8 mph66%29.89 "HgN/A
10:30 AM88 °FBroken clouds.9 mph66%29.89 "HgN/A
10:00 AM84 °FBroken clouds.8 mph74%29.89 "HgN/A
9:30 AM84 °FPartly sunny.6 mph74%29.86 "HgN/A
9:00 AM84 °FSunny.3 mph79%29.86 "Hg10 mi
8:30 AM82 °FSunny.2 mph84%29.86 "Hg10 mi
8:00 AM79 °FSunny.1 mph89%29.86 "Hg10 mi
7:30 AM75 °FSunny.1 mph100%29.83 "Hg10 mi
7:00 AM75 °FPassing clouds.2 mph94%29.83 "HgN/A
6:30 AM75 °FPassing clouds.2 mph94%29.80 "HgN/A
6:00 AM75 °FPassing clouds.3 mph94%29.80 "HgN/A
5:30 AM75 °FClear.1 mph94%29.80 "Hg10 mi
5:00 AM75 °FClear.2 mph94%29.80 "Hg10 mi
3:30 AM77 °FPassing clouds.1 mph89%29.77 "HgN/A
3:00 AM77 °FClear.No wind94%29.80 "Hg10 mi
2:30 AM79 °FPassing clouds.No wind89%29.80 "HgN/A
2:00 AM79 °FPassing clouds.No wind89%29.80 "HgN/A
1:30 AM79 °FPartly cloudy.No wind89%29.80 "HgN/A
1:00 AM79 °FPassing clouds.2 mph89%29.83 "HgN/A
12:30 AM79 °FPassing clouds.No wind89%29.83 "HgN/A
12:00 AM81 °FPartly cloudy.5 mph84%29.83 "HgN/A
11:30 PM
Fri, Nov 27
81 °FPassing clouds.5 mph84%29.83 "HgN/A
11:00 PM81 °FPassing clouds.6 mph84%29.83 "HgN/A
10:30 PM81 °FPassing clouds.7 mph84%29.86 "HgN/A
10:00 PM81 °FPassing clouds.7 mph84%29.86 "HgN/A
9:00 PM81 °FPartly cloudy.5 mph84%29.86 "HgN/A
8:30 PM81 °FPassing clouds.5 mph84%29.83 "HgN/A
8:00 PM82 °FPassing clouds.2 mph79%29.83 "HgN/A
7:30 PM82 °FPassing clouds.3 mph79%29.83 "HgN/A
7:00 PM81 °FWarm.3 mph84%29.83 "HgN/A
6:30 PM82 °FPassing clouds.6 mph79%29.83 "HgN/A
6:00 PM82 °FOvercast.6 mph79%29.83 "HgN/A
5:30 PM84 °FSunny.7 mph70%29.80 "Hg10 mi
5:00 PM84 °FOvercast.13 mph70%29.80 "HgN/A
4:30 PM86 °FPartly sunny.10 mph75%29.80 "HgN/A
4:00 PM88 °FScattered clouds.16 mph66%29.80 "HgN/A
3:30 PM86 °FPartly sunny.15 mph70%29.83 "HgN/A
3:00 PM88 °FPartly sunny.13 mph66%29.83 "HgN/A
Weather by CustomWeather, © 2015

See weather overviewHow to use our weather pages